Wind_Speed
8 8 7 6 5 4 4 2 2 3 4 5 6 7 8 9 10 11 12 13 13 14 15 16 17 17 18 18 18 17 17 16 15 14 13 12 11 10 9 10 11 13 15
8 8 7 6 6 5 4 3 2 3 4 5 6 7 8 9 11 12 13 14 14 15 16 17 17 18 18 18 18 17 17 17 16 15 14 13 11 10 10 9 10 11 14
8 9 7 6 6 5 4 3 3 3 4 5 6 7 8 10 11 12 14 14 15 16 17 17 18 18 18 19 18 18 17 17 16 15 14 13 13 11 10 10 10 10 12
9 8 8 7 6 6 4 4 3 4 4 5 6 7 9 10 12 13 14 15 16 17 17 18 18 18 19 19 19 19 18 18 17 15 14 13 13 12 11 10 9 9 11
9 8 7 7 6 6 5 4 4 4 5 6 7 8 9 11 12 13 15 16 17 18 18 19 19 19 20 20 20 20 19 18 17 16 14 13 13 12 11 11 10 9 10
8 8 8 7 6 6 5 4 4 5 6 6 7 8 10 12 13 14 15 17 18 19 19 20 20 20 21 21 21 20 19 18 17 16 15 14 13 12 11 11 10 9 9
8 8 8 7 6 6 5 5 5 6 7 7 8 10 11 12 14 15 16 17 18 19 20 21 21 21 22 22 21 21 20 19 18 16 16 15 14 13 12 11 10 9 9
8 8 8 7 7 6 6 6 7 7 8 9 10 11 12 13 15 16 17 18 19 20 20 21 22 22 22 22 22 21 20 20 19 18 17 15 14 14 13 12 11 11 10
8 8 7 7 7 7 7 7 8 9 9 10 11 12 13 15 16 17 18 19 20 21 22 22 23 23 23 23 23 22 22 21 19 18 17 17 16 15 14 13 12 12 11
7 7 7 8 8 8 9 9 10 10 11 12 13 14 15 16 17 17 19 20 21 22 23 23 24 24 24 24 24 24 23 22 21 20 19 18 17 16 16 15 14 13 13
8 8 8 8 9 9 10 11 11 12 12 13 14 15 16 17 18 19 20 21 22 23 24 25 26 26 25 25 25 25 24 23 23 22 21 20 19 18 18 17 16 15 15
9 9 9 9 10 10 11 12 12 13 14 15 16 17 18 19 19 20 21 22 23 24 25 26 27 27 27 27 27 27 26 26 25 24 23 21 20 19 19 18 18 17 17
10 10 10 10 11 12 13 13 14 15 16 17 18 19 20 21 22 22 23 24 25 26 27 28 29 28 28 29 29 28 28 27 26 24 23 22 21 20 20 20 20 19 19
11 12 12 12 13 13 14 15 15 16 18 19 20 21 22 22 23 24 25 26 27 28 28 29 30 30 30 31 30 30 29 28 26 25 24 23 22 21 21 21 21 21 21
13 13 13 14 14 14 15 16 17 18 19 20 21 23 24 24 25 26 27 27 28 30 30 31 32 32 32 32 31 30 29 27 27 26 26 25 24 24 24 24 23 23 23
14 14 15 15 16 16 17 18 19 20 21 22 24 25 25 26 27 28 29 29 30 31 32 33 33 33 33 32 31 30 29 28 28 28 27 27 26 26 27 27 27 26 26
15 15 16 17 17 18 19 20 21 22 24 25 26 26 27 28 29 29 30 31 32 32 33 34 35 34 34 33 32 30 29 29 29 29 29 29 29 28 28 29 30 30 30
16 16 17 18 19 20 21 22 24 25 26 27 28 28 29 29 30 31 32 32 33 34 34 35 36 36 35 34 33 32 31 31 31 32 32 31 30 30 30 31 32 33 33
18 18 19 20 22 23 24 25 26 27 28 29 30 30 31 31 32 32 33 34 34 35 36 36 37 36 36 35 34 34 34 34 34 35 34 33 32 32 33 34 35 35 36
20 21 21 22 24 25 25 27 28 29 30 30 31 31 32 33 33 34 35 36 37 37 38 38 38 37 37 37 36 36 36 36 36 37 37 36 35 35 35 35 36 37 38
22 23 24 25 26 27 28 29 30 31 31 32 33 33 34 35 35 36 37 38 39 39 40 40 40 39 39 38 38 38 38 39 39 39 39 39 38 37 37 37 38 39 40
25 25 26 27 28 29 29 30 32 32 33 34 34 35 36 36 37 38 39 40 40 40 41 41 42 41 41 40 40 40 40 41 42 43 42 41 40 39 39 40 40 41 41
27 28 29 29 30 31 32 33 34 34 35 36 36 37 38 39 40 40 41 41 42 42 42 43 43 43 43 42 42 42 43 44 45 45 44 43 42 41 41 42 42 42 42
30 31 31 32 32 33 34 35 35 36 37 38 39 39 40 41 42 43 43 44 44 44 44 45 45 45 45 44 44 44 45 46 47 46 45 44 44 43 43 43 43 43 43
33 33 33 34 35 35 36 37 38 39 39 40 41 42 43 44 44 45 45 46 46 46 46 46 46 46 46 46 46 46 47 47 47 46 45 45 44 44 44 44 44 43 43
35 35 35 36 37 38 38 39 40 40 41 42 43 43 44 45 45 46 46 47 48 48 48 48 48 48 48 48 48 48 48 48 47 47 46 45 45 44 45 45 44 44 43
Wind_Direction
205 206 207 208 215 220 219 232 273 306 328 341 347 347 347 349 350 350 349 348 347 347 345 343 343 342 343 344 344 342 341 339 336 332 327 322 317 309 293 275 260 249 240
209 208 209 213 219 220 222 242 281 310 326 338 344 345 346 349 351 351 351 350 349 346 344 343 342 341 342 342 343 343 342 340 336 333 330 326 320 312 303 288 270 253 242
204 205 209 215 220 220 228 252 282 307 324 334 340 343 345 348 350 349 348 348 347 346 344 343 343 343 344 344 343 342 342 341 338 335 331 328 323 316 308 296 278 257 244
205 208 212 217 220 224 238 261 283 305 319 326 332 339 343 346 347 346 346 347 347 346 345 345 345 345 344 344 344 342 341 339 337 335 332 328 324 319 312 301 283 263 250
208 209 211 215 222 228 241 257 276 297 307 315 325 334 339 343 344 344 345 345 346 345 345 345 345 344 344 343 343 342 340 339 337 334 331 327 324 319 314 306 291 271 256
208 209 212 217 224 230 242 260 277 294 306 316 325 332 335 338 340 341 341 342 343 343 343 343 343 343 342 341 340 339 338 336 335 333 330 327 324 319 313 308 297 280 262
213 212 216 220 224 232 248 266 285 298 306 313 320 326 329 331 334 336 337 339 340 340 341 341 340 340 339 339 337 336 334 333 330 328 328 325 321 318 313 309 300 286 270
218 218 222 224 229 242 259 274 287 296 302 307 312 318 322 325 328 330 332 334 335 335 337 338 337 337 336 335 334 333 331 329 327 325 323 323 319 315 311 306 300 291 279
219 222 226 231 240 253 264 276 286 292 298 303 307 312 317 321 323 325 327 330 331 332 333 334 334 333 332 331 330 329 327 325 323 320 318 317 315 313 308 303 298 293 284
230 234 238 242 250 260 268 277 286 290 293 298 303 308 313 317 320 322 325 326 327 328 329 330 330 330 329 327 326 325 323 321 318 315 313 310 308 305 303 299 296 292 286
242 246 249 253 261 266 272 278 286 289 292 297 303 307 310 314 316 319 321 322 323 325 325 326 327 326 325 324 323 322 321 318 315 311 308 305 301 298 296 294 292 289 285
252 254 257 260 266 270 274 280 286 291 295 298 302 305 308 310 313 314 316 318 320 321 322 323 324 323 323 323 322 321 320 317 314 309 304 301 296 292 290 288 287 285 283
258 259 261 264 268 273 277 282 287 292 295 298 300 303 305 307 309 311 313 315 316 318 319 321 322 322 322 321 320 319 318 315 312 307 302 297 293 288 286 285 284 283 282
262 264 265 268 272 275 278 283 287 291 294 296 298 301 304 306 308 310 312 313 315 317 318 320 321 321 320 320 319 317 316 314 311 306 301 297 291 286 284 282 281 280 280
265 267 270 273 276 278 281 285 288 291 294 296 298 301 302 304 306 309 311 312 314 315 317 318 319 319 319 318 317 316 314 312 309 306 302 297 291 285 282 281 279 279 278
268 270 273 276 279 282 284 287 289 292 294 296 299 301 302 303 305 307 308 310 311 312 314 316 317 317 316 316 315 314 313 311 308 306 303 298 293 287 284 281 279 278 277
272 274 276 279 281 284 286 288 290 291 293 296 298 300 301 303 305 306 307 308 310 311 313 314 315 315 314 313 313 311 310 309 308 307 303 298 293 288 284 282 279 278 278
273 276 279 282 283 284 286 289 290 292 294 296 298 299 301 302 304 306 307 308 309 311 312 313 314 314 313 311 310 308 307 306 305 305 303 299 294 289 286 283 281 279 277
275 278 281 283 284 285 287 289 291 293 295 297 298 299 299 300 302 304 306 308 309 310 311 311 312 312 312 310 307 305 304 305 304 303 302 299 294 292 291 287 283 279 276
277 280 282 284 286 287 288 290 292 294 295 297 297 298 298 299 301 303 304 306 308 309 309 310 310 309 309 309 305 303 303 304 304 303 302 299 295 293 292 289 285 282 278
279 281 283 285 286 288 288 290 292 293 295 296 296 297 298 299 301 302 304 305 307 308 308 309 309 308 307 307 305 302 302 303 303 303 301 297 294 293 292 290 289 285 282
281 282 284 285 286 288 289 290 292 293 294 295 296 297 298 299 300 302 303 305 306 307 307 307 308 307 306 305 304 303 302 302 303 302 300 296 292 292 291 290 289 287 284
281 283 284 286 287 288 289 291 292 293 294 295 296 297 298 299 300 301 302 304 305 305 306 306 306 306 305 304 303 303 303 302 302 301 299 295 292 291 291 290 288 287 284
282 284 285 286 287 289 290 292 293 293 294 295 296 296 297 298 299 300 302 303 303 304 304 305 305 306 305 304 303 303 303 303 301 299 296 293 291 291 290 289 288 287 285
283 284 285 286 288 289 290 291 293 294 294 295 296 296 297 298 299 300 301 302 302 303 303 304 304 305 305 304 304 303 302 303 301 298 295 293 291 290 290 289 288 287 285
283 284 285 287 288 289 290 292 293 294 295 295 296 296 297 298 298 299 300 301 302 302 302 303 303 304 304 304 304 303 303 302 302 299 297 294 293 291 290 289 288 287 285
Height
5873 5873 5874 5875 5875 5876 5876 5876 5876 5876 5876 5875 5874 5873 5872 5871 5869 5867 5865 5863 5861 5859 5856 5854 5851 5848 5845 5842 5839 5836 5833 5831 5828 5827 5825 5823 5822 5821 5820 5820 5821 5822 5823
5872 5872 5873 5874 5875 5875 5875 5876 5876 5876 5875 5874 5874 5873 5872 5870 5868 5866 5864 5862 5860 5858 5855 5853 5850 5847 5844 5841 5838 5835 5832 5830 5827 5825 5823 5822 5821 5819 5819 5818 5818 5819 5820
5870 5871 5872 5873 5874 5874 5875 5875 5875 5875 5874 5874 5873 5872 5871 5869 5867 5866 5864 5861 5859 5857 5854 5851 5848 5845 5842 5839 5836 5834 5831 5828 5826 5823 5822 5820 5819 5818 5817 5816 5815 5816 5817
5870 5871 5871 5872 5873 5873 5874 5874 5874 5874 5873 5873 5872 5871 5870 5868 5866 5865 5863 5860 5858 5855 5853 5850 5847 5844 5841 5838 5835 5832 5829 5826 5824 5822 5820 5818 5817 5816 5815 5814 5813 5813 5814
5869 5869 5870 5871 5872 5872 5873 5873 5873 5873 5873 5872 5871 5870 5869 5867 5865 5864 5862 5859 5856 5854 5851 5848 5845 5842 5839 5836 5833 5830 5827 5824 5822 5820 5818 5816 5815 5814 5813 5812 5811 5811 5812
5867 5868 5869 5870 5870 5871 5871 5872 5872 5872 5871 5871 5870 5869 5868 5866 5864 5862 5860 5858 5855 5852 5849 5846 5843 5840 5837 5834 5831 5828 5825 5822 5820 5818 5816 5814 5813 5812 5811 5810 5809 5809 5809
5866 5867 5868 5869 5869 5870 5870 5871 5871 5870 5870 5869 5868 5867 5866 5864 5862 5860 5858 5856 5853 5850 5847 5844 5841 5838 5834 5831 5828 5825 5822 5820 5817 5815 5813 5812 5810 5809 5808 5808 5807 5807 5807
5865 5866 5867 5867 5868 5868 5869 5869 5869 5868 5868 5867 5866 5865 5864 5862 5860 5858 5856 5854 5851 5848 5845 5842 5839 5835 5832 5828 5825 5822 5819 5816 5814 5812 5810 5809 5808 5807 5806 5805 5805 5805 5805
5864 5864 5865 5866 5866 5867 5867 5867 5867 5866 5866 5865 5864 5863 5862 5860 5858 5856 5853 5851 5848 5845 5842 5839 5836 5832 5828 5825 5822 5819 5815 5813 5810 5808 5807 5805 5804 5804 5803 5802 5802 5803 5802
5862 5863 5863 5864 5864 5864 5865 5864 5864 5864 5863 5862 5861 5860 5858 5857 5855 5852 5850 5848 5845 5842 5839 5836 5832 5828 5825 5821 5818 5814 5811 5808 5806 5804 5803 5801 5801 5800 5799 5799 5799 5799 5799
5860 5861 5861 5861 5862 5862 5862 5862 5861 5861 5860 5859 5858 5856 5855 5853 5851 5849 5847 5844 5841 5838 5835 5832 5828 5824 5820 5816 5813 5809 5806 5803 5800 5798 5797 5796 5795 5795 5795 5794 5794 5795 5795
5858 5858 5858 5859 5859 5859 5859 5858 5858 5857 5856 5855 5854 5853 5851 5849 5847 5845 5842 5840 5837 5834 5831 5827 5823 5819 5815 5811 5807 5803 5800 5797 5794 5792 5790 5789 5789 5789 5789 5789 5789 5790 5790
5855 5855 5856 5856 5856 5856 5855 5855 5854 5854 5853 5851 5850 5849 5847 5845 5843 5840 5838 5835 5832 5829 5825 5822 5818 5813 5809 5805 5801 5797 5794 5790 5787 5785 5783 5782 5782 5782 5782 5783 5783 5784 5784
5852 5852 5852 5852 5852 5852 5852 5851 5850 5850 5848 5847 5846 5844 5842 5840 5838 5835 5832 5829 5826 5823 5820 5816 5811 5807 5803 5799 5794 5790 5786 5783 5780 5778 5776 5776 5775 5775 5776 5776 5776 5777 5777
5849 5849 5849 5849 5849 5848 5848 5847 5846 5845 5844 5842 5841 5839 5837 5834 5832 5829 5826 5823 5820 5817 5813 5809 5805 5800 5796 5792 5787 5783 5779 5776 5774 5771 5770 5768 5768 5768 5768 5769 5769 5770 5770
5845 5845 5845 5845 5845 5844 5843 5843 5841 5840 5839 5837 5835 5833 5831 5828 5826 5823 5820 5817 5813 5810 5806 5802 5798 5793 5789 5784 5780 5776 5773 5770 5767 5765 5763 5761 5760 5760 5760 5760 5761 5761 5762
5841 5841 5841 5840 5840 5839 5838 5837 5836 5834 5833 5831 5829 5827 5824 5821 5818 5815 5812 5809 5806 5802 5798 5794 5790 5785 5781 5777 5773 5769 5766 5763 5760 5758 5756 5754 5752 5751 5751 5751 5752 5752 5752
5837 5836 5836 5835 5835 5834 5833 5832 5830 5828 5826 5824 5822 5819 5817 5814 5811 5808 5805 5801 5798 5794 5790 5786 5782 5777 5773 5768 5764 5761 5759 5756 5753 5750 5747 5745 5743 5742 5742 5741 5741 5741 5741
5832 5831 5831 5830 5829 5828 5827 5825 5824 5822 5819 5817 5814 5812 5809 5806 5803 5800 5797 5793 5790 5786 5782 5777 5773 5768 5764 5760 5756 5752 5750 5747 5744 5741 5738 5735 5734 5732 5731 5730 5730 5729 5729
5826 5826 5825 5824 5823 5821 5820 5818 5816 5814 5812 5809 5806 5804 5801 5798 5795 5792 5789 5785 5781 5777 5773 5768 5764 5759 5755 5750 5746 5743 5741 5738 5735 5732 5728 5725 5723 5721 5719 5718 5717 5717 5716
5820 5819 5818 5817 5816 5814 5813 5811 5809 5806 5804 5801 5798 5795 5792 5789 5786 5783 5780 5776 5772 5768 5763 5759 5754 5750 5745 5741 5737 5733 5730 5728 5724 5721 5717 5714 5711 5709 5707 5705 5704 5702 5702
5814 5813 5812 5810 5808 5807 5805 5803 5800 5798 5795 5792 5789 5786 5783 5780 5777 5773 5770 5766 5762 5758 5753 5749 5744 5739 5735 5731 5726 5723 5719 5716 5713 5709 5705 5702 5699 5696 5694 5692 5690 5688 5687
5807 5805 5804 5802 5800 5798 5796 5794 5791 5788 5786 5783 5780 5777 5773 5770 5767 5763 5759 5755 5751 5747 5743 5738 5734 5729 5724 5720 5716 5712 5708 5704 5700 5696 5692 5689 5686 5683 5681 5679 5676 5674 5672
5798 5797 5795 5793 5791 5789 5786 5784 5781 5779 5776 5773 5770 5766 5763 5760 5756 5752 5748 5744 5740 5735 5731 5727 5722 5717 5713 5708 5704 5700 5695 5691 5686 5682 5679 5675 5672 5670 5667 5664 5662 5659 5657
5790 5788 5786 5784 5782 5779 5777 5774 5771 5768 5765 5762 5759 5755 5752 5748 5744 5740 5736 5731 5727 5722 5718 5714 5709 5705 5701 5696 5691 5686 5682 5677 5673 5668 5665 5661 5659 5656 5653 5650 5647 5644 5642
5780 5778 5776 5774 5772 5769 5766 5763 5760 5757 5754 5751 5747 5744 5740 5736 5732 5728 5724 5719 5714 5709 5704 5700 5696 5691 5686 5682 5677 5672 5667 5662 5658 5654 5650 5647 5644 5641 5639 5636 5633 5630 5628